(102261) = 1999 TF34 = 2001 FE85

Discovered at Catalina on 1999-10-01 by CSS.

Orbit

Orbit type: Main Belt

Note: WebGL enabled browser required.

epoch2023-02-25.0
epoch JD2460000.5
perihelion date2020-12-29.35749
perihelion JD2459212.85749
argument of perihelion (°)259.84533
ascending node (°)149.41844
inclination (°)4.33610
eccentricity0.2684987
perihelion distance (AU)1.9031033
Tisserand w.r.t. Jupiter3.4
ΔV w.r.t. Earth (km/sec)8.8
semimajor axis (AU)2.6016404
mean anomaly (°)184.99589
mean daily motion (°/day)0.23487290
aphelion distance (AU)3.300
period (years)4.2
P-vector [x]0.65114423
P-vector [y]0.72257444
P-vector [z]0.23215808
Q-vector [x]-0.75797859
Q-vector [y]0.60363206
Q-vector [z]0.24717765
absolute magnitude17.0
phase slope0.15
uncertainty0
referenceMPO 745323
observations used439
oppositions15
arc length (days)9993
first opposition used1996
last opposition used2023
residual rms (arc-secs)0.73
perturbers coarse indicatorM-v
perturbers precise indicator003Ek
first observation date used1996-01-15.0
last observation date used2023-05-26.0
computer nameMPCLINUX
JD of orbit computation2456789.205500
perihelion JD uncertainty (days)5.1271E-05
argument of perihelion uncertainty (°)5.1039E-05
ascending node uncertainty (°)4.8982E-05
inclination uncertainty (°)6.4570E-06
eccentricity uncertainty 4.1227E-08
perihelion distance uncertainty (AU)1.0367E-07
Minimum Orbit Intersection Distances (in AU)
for orbit epoch: 2460000.5, reference: E2023-KF8
Mercury1.58736
Venus1.18166
Earth0.91756
Mars0.43363
Jupiter2.10442
Saturn6.55837
Uranus15.3945
Neptune27.3694

Observations

448 total observations over interval: 1996 01 15.17525 – 2023 05 26.513037
These data are available for download (format description).

Date (UT) J2000 RA J2000 Dec Magn Location Ref
1996 01 15.17525 03 55 01.29 +13 51 22.7 20.2 V 691 – Steward Observatory, Kitt Peak-Spacewatch MPS 178964
1996 01 15.19680 03 55 01.83 +13 51 29.8   691 – Steward Observatory, Kitt Peak-Spacewatch MPS 178964
1996 01 15.21826 03 55 02.43 +13 51 36.7   691 – Steward Observatory, Kitt Peak-Spacewatch MPS 178964
1999 10 01.26630 00 59 05.13 +00 10 02.8 19.0 R 703 – Catalina Sky Survey MPS 6947
1999 10 01.27859 00 59 04.67 +00 09 57.2 18.7 R 703 – Catalina Sky Survey MPS 6947
1999 10 01.29099 00 59 04.12 +00 09 52.2 18.8 R 703 – Catalina Sky Survey MPS 6947
1999 10 01.30336 00 59 03.57 +00 09 45.5 19.1 R 703 – Catalina Sky Survey MPS 6947
1999 10 05.27818 00 56 15.60 -00 21 19.8 18.7 R 703 – Catalina Sky Survey MPS 6947
1999 10 05.29030 00 56 14.99 -00 21 24.4 18.6 R 703 – Catalina Sky Survey MPS 6947
1999 10 05.30250 00 56 14.48 -00 21 30.8 18.7 R 703 – Catalina Sky Survey MPS 6947
1999 10 05.31464 00 56 13.92 -00 21 36.1 18.7 R 703 – Catalina Sky Survey MPS 6947
1999 10 07.32313 00 54 46.34 -00 37 04.0 18.7   704 – Lincoln Laboratory ETS, New Mexico MPS 13688
1999 10 07.33390 00 54 45.82 -00 37 08.7 18.9   704 – Lincoln Laboratory ETS, New Mexico MPS 13688
1999 10 07.35509 00 54 44.87 -00 37 17.9 19.2   704 – Lincoln Laboratory ETS, New Mexico MPS 13688
1999 10 08.25517 00 54 05.60 -00 44 07.4 18.6   704 – Lincoln Laboratory ETS, New Mexico MPS 13688
1999 10 08.27125 00 54 04.85 -00 44 14.5 19.2   704 – Lincoln Laboratory ETS, New Mexico MPS 13688
1999 10 08.28709 00 54 04.09 -00 44 22.9 19.1   704 – Lincoln Laboratory ETS, New Mexico MPS 13688
1999 10 08.30287 00 54 03.31 -00 44 28.9 18.8   704 – Lincoln Laboratory ETS, New Mexico MPS 13688
1999 10 08.31850 00 54 02.61 -00 44 36.3 19.0   704 – Lincoln Laboratory ETS, New Mexico MPS 13688
2001 03 26.22630 11 55 52.72 +04 01 06.4 21.4 V 691 – Steward Observatory, Kitt Peak-Spacewatch MPS 28421
2001 03 26.24720 11 55 51.65 +04 01 14.4 22.2 V 691 – Steward Observatory, Kitt Peak-Spacewatch MPS 28421
2001 03 26.26793 11 55 50.59 +04 01 22.8 22.2 V 691 – Steward Observatory, Kitt Peak-Spacewatch MPS 28421
2001 03 27.38128 11 54 54.71 +04 08 20.5 21.8 V 691 – Steward Observatory, Kitt Peak-Spacewatch MPS 28421
2001 03 27.38736 11 54 54.45 +04 08 22.1 22.6 V 691 – Steward Observatory, Kitt Peak-Spacewatch MPS 28421
2001 03 27.39290 11 54 54.16 +04 08 24.3 21.9 V 691 – Steward Observatory, Kitt Peak-Spacewatch MPS 28421
2001 04 16.147150 11 40 59.746 +05 47 44.97 21.65 V 645 – Apache Point-Sloan Digital Sky Survey MPS 79601
2001 04 16.150622 11 40 59.631 +05 47 45.80 22.39   645 – Apache Point-Sloan Digital Sky Survey MPS 79601
2003 07 24.44718 22 44 30.39 -07 12 06.4 19.8   644 – Palomar Mountain/NEAT MPS 82609
2003 07 24.45994 22 44 30.22 -07 12 08.7 20.1   644 – Palomar Mountain/NEAT MPS 82609
2003 07 24.47698 22 44 30.00 -07 12 11.7 20.5   644 – Palomar Mountain/NEAT MPS 82609
2003 08 22.25863 22 29 22.86 -09 49 18.6 19.4   644 – Palomar Mountain/NEAT MPS 83208
2003 08 22.26588 22 29 22.52 -09 49 20.9 18.8   704 – Lincoln Laboratory ETS, New Mexico MPS 83208
2003 08 22.27009 22 29 22.26 -09 49 23.5 19.1   644 – Palomar Mountain/NEAT MPS 83208
2003 08 22.27873 22 29 21.80 -09 49 26.8 19.4   704 – Lincoln Laboratory ETS, New Mexico MPS 83208
2003 08 22.29136 22 29 21.21 -09 49 31.6 19.2   704 – Lincoln Laboratory ETS, New Mexico MPS 83208
2003 08 22.29248 22 29 21.14 -09 49 33.3 19.3   644 – Palomar Mountain/NEAT MPS 83208
2003 08 26.95066 22 25 31.01 -10 24 22.9 19.2 R 106 – Crni Vrh MPS 83208
2003 08 26.96622 22 25 30.22 -10 24 29.8 19.6 R 106 – Crni Vrh MPS 83208
2003 08 26.98170 22 25 29.44 -10 24 36.6 19.2 R 106 – Crni Vrh MPS 83208
2003 08 31.27377 22 21 50.94 -10 57 10.8 19.7 V 691 – Steward Observatory, Kitt Peak-Spacewatch MPS 83921
2003 08 31.30693 22 21 49.15 -10 57 25.9 19.6 V 691 – Steward Observatory, Kitt Peak-Spacewatch MPS 83921
2003 08 31.33742 22 21 47.53 -10 57 39.7 19.6 V 691 – Steward Observatory, Kitt Peak-Spacewatch MPS 83921
2003 09 01.25777 22 21 00.51 -11 04 38.9 19.2   704 – Lincoln Laboratory ETS, New Mexico MPS 83921
2003 09 01.26951 22 21 00.02 -11 04 42.8 19.2   704 – Lincoln Laboratory ETS, New Mexico MPS 83921
2003 09 01.28138 22 20 59.39 -11 04 49.4 19.5   704 – Lincoln Laboratory ETS, New Mexico MPS 83921
2003 09 01.29326 22 20 58.71 -11 04 54.3 19.0   704 – Lincoln Laboratory ETS, New Mexico MPS 83921
2005 03 04.32163 10 53 47.84 +08 36 07.5 19.3 R G96 – Mt. Lemmon Survey MPS 127077
2005 03 04.32694 10 53 47.49 +08 36 09.8 19.5 R G96 – Mt. Lemmon Survey MPS 127077
2005 03 04.33225 10 53 47.23 +08 36 11.6 18.4 R G96 – Mt. Lemmon Survey MPS 127077
2005 03 04.33755 10 53 46.97 +08 36 14.8 21.4 R G96 – Mt. Lemmon Survey MPS 127077
2005 03 10.30263 10 48 32.71 +09 16 38.7 20.1 R G96 – Mt. Lemmon Survey MPS 127725
2005 03 10.31036 10 48 32.30 +09 16 41.6 19.7 R G96 – Mt. Lemmon Survey MPS 127725
2005 03 10.31795 10 48 31.90 +09 16 44.7 20.0 R G96 – Mt. Lemmon Survey MPS 127725
2005 03 10.32553 10 48 31.48 +09 16 47.4 19.9 R G96 – Mt. Lemmon Survey MPS 127725
2005 03 15.89639 10 43 56.61 +09 51 32.2 19.6 V A13 – Observatoire Naef, Ependes MPS 128869
2005 03 15.94433 10 43 54.22 +09 51 48.6 20.4 V A13 – Observatoire Naef, Ependes MPS 128869
2005 03 15.96616 10 43 53.19 +09 51 56.7 20.2 V A13 – Observatoire Naef, Ependes MPS 128869
2005 03 17.00758 10 43 04.43 +09 58 02.4 20.7 V A13 – Observatoire Naef, Ependes MPS 128869
2005 03 17.01442 10 43 04.28 +09 58 09.0 20.2 V A13 – Observatoire Naef, Ependes MPS 128869
2005 04 02.12394 10 33 07.87 +11 12 26.4 21.2 V 691 – Steward Observatory, Kitt Peak-Spacewatch MPS 130136
2005 04 02.13988 10 33 07.45 +11 12 29.7 21.3 V 691 – Steward Observatory, Kitt Peak-Spacewatch MPS 130136
2005 04 02.15576 10 33 06.97 +11 12 32.8 21.3 V 691 – Steward Observatory, Kitt Peak-Spacewatch MPS 130136
2005 04 11.16402 10 30 04.56 +11 36 08.4 20.4 R G96 – Mt. Lemmon Survey MPS 131499
2005 04 11.17085 10 30 04.44 +11 36 09.1 20.3 R G96 – Mt. Lemmon Survey MPS 131499
2005 04 11.17769 10 30 04.34 +11 36 10.4 20.7 R G96 – Mt. Lemmon Survey MPS 131499
2005 04 11.18456 10 30 04.26 +11 36 10.8 21.0 R G96 – Mt. Lemmon Survey MPS 131499
2007 06 21.34417 20 58 49.69 -13 39 56.7 21.2 V G96 – Mt. Lemmon Survey MPS 211327
2007 06 21.35075 20 58 49.58 -13 39 56.3 21.0 V G96 – Mt. Lemmon Survey MPS 211327
2007 06 21.35723 20 58 49.51 -13 39 56.9 20.9 V G96 – Mt. Lemmon Survey MPS 211327
2007 06 21.36373 20 58 49.44 -13 39 57.6 21.1 V G96 – Mt. Lemmon Survey MPS 211327
2007 06 25.41159 20 57 42.82 -13 45 25.3 21.0 V 691 – Steward Observatory, Kitt Peak-Spacewatch MPS 211501
2007 06 25.42675 20 57 42.49 -13 45 27.0 20.9 V 691 – Steward Observatory, Kitt Peak-Spacewatch MPS 211501
2007 06 25.44191 20 57 42.16 -13 45 28.4 20.9 V 691 – Steward Observatory, Kitt Peak-Spacewatch MPS 211501
2007 11 02.09178 20 32 34.90 -18 58 29.0 21.2 V G96 – Mt. Lemmon Survey MPS 226286
2007 11 02.09740 20 32 35.34 -18 58 27.8 21.2 V G96 – Mt. Lemmon Survey MPS 226286
2007 11 02.10300 20 32 35.73 -18 58 27.2 21.4 V G96 – Mt. Lemmon Survey MPS 226286
2007 11 02.10863 20 32 36.13 -18 58 26.1 20.6 V G96 – Mt. Lemmon Survey MPS 226286
2009 01 03.42176 09 55 18.22 +10 15 54.7 20.5 V G96 – Mt. Lemmon Survey MPS 272101
2009 01 03.43035 09 55 18.08 +10 15 56.2 20.5 V G96 – Mt. Lemmon Survey MPS 272101
2009 01 03.43906 09 55 17.86 +10 15 57.7 20.5 V G96 – Mt. Lemmon Survey MPS 272101
2009 01 03.44755 09 55 17.68 +10 15 59.3 20.6 V G96 – Mt. Lemmon Survey MPS 272101
2009 01 18.34644 09 47 16.52 +11 19 59.8   691 – Steward Observatory, Kitt Peak-Spacewatch MPS 275334
2009 01 18.36481 09 47 15.67 +11 20 06.0   691 – Steward Observatory, Kitt Peak-Spacewatch MPS 275334
2009 01 18.36804 09 47 15.54 +11 20 07.2 20.1 V G96 – Mt. Lemmon Survey MPS 275334
2009 01 18.37312 09 47 15.28 +11 20 08.8 20.3 V G96 – Mt. Lemmon Survey MPS 275334
2009 01 18.37822 09 47 15.03 +11 20 10.6 20.2 V G96 – Mt. Lemmon Survey MPS 275334
2009 01 18.38293 09 47 14.83 +11 20 12.0   691 – Steward Observatory, Kitt Peak-Spacewatch MPS 275334
2009 01 18.38345 09 47 14.82 +11 20 12.1 20.4 V G96 – Mt. Lemmon Survey MPS 275334
2009 01 26.47127 09 40 38.79 +12 08 37.2 20.5 r 568 – Maunakea MPS 1490959
